Precipitable_Water
1.06 1.08 1.06 1.10 1.07 1.07 1.11 1.11 1.02 0.87 0.91 1.00 0.99 1.20 1.12 1.19 1.22 1.10 1.07 1.09 1.04 0.99 0.94 0.92 0.85 0.81 0.80 0.78 0.75 0.75 0.77 0.80 0.88 0.99 1.14 1.30 1.51 1.67
1.12 1.07 1.06 1.07 1.10 1.21 1.17 1.16 1.09 0.97 0.83 0.99 1.03 1.10 1.13 1.14 1.18 1.19 1.12 1.07 1.05 1.05 1.01 1.01 0.98 0.92 0.89 0.85 0.81 0.78 0.78 0.76 0.78 0.85 0.91 1.03 1.18 1.37
1.22 1.06 1.11 1.14 1.11 1.15 1.15 1.19 1.09 1.04 0.91 0.84 0.95 1.09 1.13 1.08 1.08 1.17 1.23 1.18 1.12 1.09 1.07 1.05 1.01 0.95 0.90 0.87 0.85 0.84 0.81 0.81 0.79 0.79 0.83 0.88 0.96 1.09
1.20 1.13 1.19 1.32 1.35 1.28 1.22 1.22 1.19 1.07 0.97 0.89 0.95 0.96 1.01 1.08 1.13 1.06 1.08 1.13 1.11 1.06 1.01 0.99 0.98 0.97 0.95 0.90 0.84 0.82 0.85 0.84 0.82 0.80 0.81 0.83 0.86 0.92
1.30 1.25 1.28 1.34 1.35 1.33 1.30 1.20 1.18 1.18 1.15 0.98 0.94 0.99 1.12 1.10 1.08 1.09 1.04 1.16 1.18 1.11 1.11 1.10 1.06 1.02 0.93 0.87 0.82 0.82 0.86 0.87 0.85 0.83 0.81 0.81 0.84 0.88
1.41 1.31 1.35 1.37 1.39 1.43 1.42 1.42 1.36 1.32 1.21 1.13 1.02 1.00 1.01 0.99 1.14 1.01 0.96 1.06 1.07 1.09 1.08 1.00 1.03 1.01 0.97 0.88 0.84 0.87 0.89 0.88 0.87 0.85 0.82 0.82 0.80 0.82
1.36 1.33 1.39 1.41 1.46 1.48 1.47 1.42 1.47 1.36 1.30 1.16 0.97 0.92 0.91 0.94 0.94 0.99 0.98 1.04 1.06 1.10 0.93 0.98 1.01 0.94 0.87 0.80 0.87 0.94 0.96 0.91 0.87 0.84 0.82 0.81 0.80 0.80
1.35 1.38 1.41 1.52 1.47 1.40 1.38 1.45 1.52 1.43 1.31 1.16 1.00 0.87 0.90 0.96 1.00 0.98 0.96 0.88 0.75 0.98 0.94 0.86 0.87 0.76 0.77 0.80 0.88 0.89 0.83 0.80 0.82 0.82 0.83 0.83 0.82 0.81
1.43 1.42 1.41 1.45 1.36 1.36 1.43 1.48 1.45 1.47 1.41 1.19 1.02 0.95 0.93 0.95 0.94 0.88 0.87 0.86 0.77 0.83 0.84 0.74 0.86 0.83 0.89 0.88 0.91 0.83 0.78 0.83 0.90 0.94 0.92 0.90 0.85 0.82
1.40 1.45 1.45 1.44 1.48 1.43 1.41 1.39 1.42 1.44 1.37 1.25 1.13 1.01 0.98 0.97 0.93 0.91 0.87 0.82 0.74 0.76 0.88 0.72 0.90 0.82 0.91 0.98 0.83 0.77 0.76 0.91 1.02 1.03 1.01 0.99 0.93 0.87
1.43 1.48 1.48 1.44 1.42 1.37 1.34 1.29 1.25 1.26 1.27 1.14 1.02 0.97 0.95 0.91 0.94 0.81 0.67 0.63 0.62 0.71 0.83 0.81 0.82 0.79 0.82 0.73 0.76 0.89 1.00 1.12 1.17 1.15 1.15 1.11 1.05 0.97
1.53 1.53 1.45 1.34 1.33 1.34 1.30 1.17 1.08 1.06 1.04 0.98 1.01 0.95 0.95 0.99 0.85 0.86 0.86 0.81 0.73 0.70 0.82 0.75 0.70 0.67 0.65 0.87 0.97 1.06 1.21 1.31 1.33 1.29 1.25 1.20 1.14 1.05
1.37 1.37 1.43 1.42 1.36 1.21 1.11 1.04 0.95 0.97 0.94 0.86 0.85 0.89 0.93 0.90 0.78 0.85 0.93 0.83 0.71 0.68 0.77 0.70 0.60 0.75 0.93 0.92 0.95 1.17 1.34 1.35 1.36 1.38 1.34 1.28 1.21 1.12
1.30 1.38 1.46 1.42 1.24 1.13 0.99 0.89 0.88 0.86 0.84 0.83 0.86 0.87 0.85 0.70 0.71 0.76 0.75 0.73 0.74 0.70 0.64 0.70 0.82 0.97 0.97 0.88 0.91 1.18 1.31 1.37 1.42 1.39 1.41 1.39 1.32 1.21
1.37 1.35 1.37 1.23 1.11 1.00 0.93 0.89 0.85 0.83 0.84 0.86 0.84 0.73 0.66 0.74 0.75 0.76 0.77 0.73 0.67 0.58 0.68 0.90 1.00 0.98 1.03 0.96 1.03 1.12 1.17 1.26 1.36 1.45 1.47 1.38 1.32 1.19
1.32 1.25 1.15 1.09 1.01 0.97 0.93 0.92 0.90 0.90 0.88 0.79 0.66 0.76 0.75 0.74 0.70 0.65 0.56 0.51 0.44 0.48 0.75 0.89 0.95 0.95 1.02 1.05 1.08 1.10 1.18 1.15 1.34 1.42 1.40 1.46 1.43 1.21
1.21 1.16 1.05 1.00 0.97 0.96 0.96 0.94 0.92 0.90 0.83 0.77 0.73 0.72 0.65 0.62 0.57 0.53 0.46 0.43 0.44 0.52 0.67 0.85 0.95 1.06 1.15 1.12 1.02 1.09 1.15 1.19 1.28 1.32 1.34 1.40 1.43 1.35
1.05 0.96 0.91 0.88 0.85 0.83 0.82 0.86 0.86 0.82 0.79 0.79 0.71 0.61 0.58 0.55 0.49 0.43 0.43 0.44 0.44 0.55 0.66 0.84 0.86 0.92 0.94 1.04 1.14 1.07 1.13 1.14 1.24 1.28 1.37 1.31 1.35 1.43
0.87 0.81 0.81 0.83 0.82 0.82 0.81 0.78 0.74 0.74 0.76 0.66 0.59 0.56 0.53 0.47 0.42 0.39 0.40 0.41 0.45 0.54 0.66 0.81 0.81 0.86 0.81 0.85 1.04 1.21 1.08 1.12 1.18 1.22 1.31 1.30 1.37 1.41
0.81 0.79 0.79 0.77 0.76 0.74 0.71 0.68 0.69 0.66 0.60 0.55 0.49 0.47 0.45 0.41 0.37 0.37 0.37 0.37 0.39 0.54 0.64 0.73 0.79 0.84 0.87 0.92 0.95 1.07 1.19 1.12 1.14 1.17 1.22 1.28 1.42 1.61
0.82 0.74 0.71 0.69 0.67 0.67 0.69 0.70 0.67 0.57 0.49 0.42 0.44 0.42 0.39 0.38 0.35 0.35 0.34 0.35 0.36 0.47 0.52 0.61 0.73 0.87 1.00 1.04 0.94 0.97 1.07 1.20 1.21 1.17 1.23 1.28 1.32 1.42
0.74 0.69 0.67 0.67 0.66 0.67 0.70 0.65 0.56 0.48 0.44 0.41 0.38 0.37 0.37 0.36 0.34 0.32 0.32 0.32 0.35 0.37 0.42 0.64 0.75 0.75 0.78 0.86 0.91 0.94 1.00 1.08 1.20 1.25 1.28 1.32 1.20 1.11
0.73 0.71 0.71 0.70 0.66 0.65 0.59 0.53 0.47 0.42 0.41 0.38 0.36 0.35 0.35 0.33 0.34 0.32 0.32 0.31 0.33 0.33 0.34 0.51 0.66 0.71 0.71 0.79 0.89 0.88 0.97 0.98 1.03 1.07 1.16 1.31 1.35 1.37
Wind_Speed
17 16 17 16 17 17 17 16 17 18 19 19 19 19 20 21 19 23 25 25 26 27 29 30 30 31 32 32 33 33 33 33 34 35 37 38 39 38
19 18 18 17 18 19 18 18 18 18 19 20 21 22 23 25 27 27 28 29 31 32 33 32 33 33 34 35 35 36 36 35 36 36 37 38 40 41
20 20 19 19 19 19 18 18 18 18 20 21 23 25 27 29 30 29 31 32 33 34 34 34 34 36 36 37 37 37 38 38 37 37 39 39 40 42
22 21 21 20 20 20 19 21 21 23 24 25 26 28 28 29 29 31 33 34 34 33 34 33 35 36 36 37 37 38 39 39 39 38 39 40 42 42
23 23 22 22 22 22 22 23 24 25 25 28 28 29 30 30 32 32 34 33 34 34 35 35 36 36 37 39 39 39 39 40 40 40 40 41 43 45
24 24 24 24 23 24 25 26 27 27 28 29 30 30 30 32 33 34 34 33 35 34 34 36 37 38 38 38 40 40 40 41 42 42 43 44 45 47
23 25 25 25 26 27 27 29 30 30 30 31 32 32 32 33 35 36 35 34 34 34 36 36 35 35 35 36 36 37 39 41 44 47 48 49 50 49
25 25 26 26 27 28 30 30 31 31 31 31 32 33 35 36 35 35 35 36 37 36 37 38 37 36 36 35 34 35 38 41 47 52 54 53 53 52
25 25 25 26 27 29 29 30 30 31 33 33 34 35 36 35 36 37 37 38 38 38 39 38 35 35 33 35 36 38 42 46 51 54 55 55 55 55
26 27 28 28 28 29 29 33 33 34 33 35 35 36 36 36 36 36 37 38 37 35 34 35 34 35 34 36 39 43 49 52 52 53 53 53 54 55
27 28 27 27 29 33 35 32 31 32 33 35 35 35 36 36 34 34 34 34 33 32 31 33 33 34 36 38 41 45 51 52 50 48 49 50 51 53
28 27 29 31 32 33 31 30 31 33 33 34 34 36 35 33 33 33 32 31 32 31 29 30 33 34 36 37 41 46 44 42 39 40 43 45 46 48
27 29 29 30 30 28 30 31 32 33 34 35 35 34 32 31 31 29 29 30 31 31 31 31 32 32 35 40 40 40 36 33 32 32 36 40 43 47
27 28 29 29 28 29 31 32 33 33 33 33 32 30 30 29 28 28 29 30 30 31 30 30 31 32 35 37 38 34 31 29 27 29 31 37 41 46
28 29 27 27 29 31 32 32 31 31 29 28 28 27 27 27 28 27 28 28 28 28 27 25 29 32 33 33 34 32 26 23 23 22 28 34 37 41
27 26 26 28 31 30 29 28 27 25 25 26 25 25 26 26 26 27 27 27 27 26 24 26 28 30 31 33 32 29 25 22 22 20 21 24 31 35
23 25 27 28 28 28 27 25 24 24 24 24 25 25 26 26 26 26 26 26 25 24 24 25 27 28 28 31 30 26 24 23 22 18 16 18 26 31
25 27 28 27 26 25 24 24 24 25 24 24 25 25 25 25 25 25 24 23 22 23 23 24 27 27 28 28 26 24 22 22 18 16 14 15 21 27
26 25 24 24 24 24 24 24 24 24 24 24 24 24 24 23 22 22 21 21 21 21 22 23 25 25 25 25 26 22 22 20 17 16 14 14 18 23
22 22 22 22 22 23 23 23 23 23 22 22 22 22 21 20 19 19 19 19 20 20 20 21 22 24 22 23 24 25 23 19 16 14 14 15 18 21
20 19 20 21 22 22 22 21 21 21 21 21 19 18 18 17 17 18 18 19 19 19 20 21 21 22 22 22 23 24 25 18 14 12 12 12 16 18
18 19 20 20 21 20 20 20 19 18 17 17 16 15 15 16 17 18 18 18 18 18 19 19 19 21 21 22 22 24 23 21 13 11 9 9 9 16
18 18 19 19 19 19 18 18 18 17 16 15 15 15 15 16 17 17 18 18 18 18 18 19 17 19 21 21 19 22 22 21 17 11 10 9 9 8
Wind_Direction
283 283 281 282 282 283 284 286 286 285 287 287 290 285 289 289 287 294 295 295 291 291 289 287 281 278 274 272 269 267 263 260 258 255 252 250 247 246
280 282 280 281 282 282 284 284 284 285 289 290 289 288 289 289 289 290 294 292 291 290 288 285 282 279 276 273 271 266 263 261 258 256 253 251 248 246
279 279 278 279 283 284 281 284 286 285 290 290 292 291 292 291 289 289 291 293 293 290 288 284 281 280 278 274 271 267 262 260 258 256 254 252 250 247
277 277 276 277 279 282 281 281 283 287 287 288 293 294 293 293 291 290 291 293 293 291 289 285 283 280 277 275 272 267 262 259 257 257 255 253 250 248
273 275 275 276 280 282 283 284 286 288 289 292 295 297 293 293 294 294 295 292 292 292 288 285 283 280 279 276 272 268 262 259 258 256 255 254 252 249
272 273 274 276 279 282 284 285 287 287 290 291 294 297 296 295 292 295 295 292 292 292 290 289 286 282 278 277 271 267 262 260 258 257 256 255 254 250
274 273 274 277 279 283 285 287 287 287 290 292 294 297 298 298 297 295 293 294 293 292 291 289 287 284 282 281 274 267 264 263 260 259 259 257 254 250
271 274 275 277 279 284 287 288 286 285 287 293 295 298 298 298 296 294 293 294 293 292 290 289 287 283 282 280 276 272 270 268 266 264 261 257 252 248
271 274 277 281 283 288 288 287 289 286 286 290 294 296 297 298 296 294 293 294 293 293 291 290 287 283 283 280 277 276 276 278 275 267 261 256 251 246
272 275 276 281 283 288 291 293 289 288 287 292 292 294 296 298 296 296 295 294 294 294 291 290 288 284 285 283 283 282 283 282 277 268 260 254 249 245
273 275 277 281 286 289 290 290 292 291 292 293 293 295 296 297 296 297 298 297 297 297 296 291 289 288 288 288 289 289 289 285 277 266 258 251 247 242
274 276 279 284 289 290 290 292 292 294 294 294 294 296 296 295 294 294 295 296 299 299 299 297 294 294 293 294 297 298 293 285 274 265 256 247 243 238
276 280 281 285 291 289 291 293 294 296 295 295 295 295 295 296 297 297 295 297 298 297 299 298 297 297 298 302 303 303 297 289 277 266 254 244 239 234
281 284 286 287 288 291 293 294 295 295 295 295 295 295 296 296 297 298 298 299 298 297 300 298 297 300 304 306 309 307 302 293 281 268 255 248 239 232
282 287 285 287 291 293 294 295 295 295 295 295 297 296 297 298 299 299 301 302 302 302 301 302 302 306 308 312 310 312 302 300 287 278 269 247 237 227
282 284 286 289 293 295 296 295 296 294 296 297 297 297 300 300 301 302 304 304 305 304 304 304 309 312 311 316 312 311 300 299 295 287 273 244 225 221
281 285 290 292 293 293 293 294 294 294 296 296 297 299 300 301 302 304 305 305 305 306 308 309 314 316 316 319 317 308 304 300 295 291 283 239 223 222
286 289 291 293 294 295 295 294 294 295 295 295 298 298 300 302 304 306 305 306 307 309 310 314 318 319 322 325 326 315 306 304 296 286 275 244 228 224
289 290 291 294 295 296 296 295 295 295 297 296 296 298 300 302 304 307 308 309 311 312 315 321 324 327 327 328 330 327 318 306 291 285 265 251 234 224
291 290 293 295 296 296 297 296 296 296 298 298 298 299 300 302 305 308 311 312 314 314 317 322 329 331 330 331 334 336 328 313 297 279 270 258 241 229
293 293 295 298 298 297 297 297 297 297 298 299 298 298 300 302 306 310 312 313 314 317 320 321 327 334 332 334 337 338 341 327 302 288 274 264 232 222
293 296 298 301 301 299 298 298 298 299 299 300 301 301 301 304 306 310 313 314 316 319 322 326 327 334 335 335 337 341 343 344 316 291 283 275 246 233
293 296 301 301 302 300 300 299 298 296 297 299 300 302 304 306 308 309 311 314 315 318 322 323 327 334 340 341 341 347 350 351 347 307 285 271 256 264